Regional Weather Roundup
Issued by NWS

Home | Current Version | Previous Version | Text Only | Print | Product List | Glossary On
Versions: 1 2 3 4 5 6 7 8 9 10 11 12 13 14 15 16 17 18 19 20 21 22 23 24 25 26 27 28 29 30 31 32 33 34 35 36 37 38 39 40 41 42 43 44 45 46 47 48 49 50
000
ASUS43 KBIS 110720
RWRND

NORTH DAKOTA REGIONAL WEATHER ROUNDUP
NATIONAL WEATHER SERVICE BISMARCK ND
200 AM CDT FRI JUL 11 2014

NOTE: "FAIR" INDICATES FEW OR NO CLOUDS BELOW 12,000 FEET WITH NO
SIGNIFICANT WEATHER AND/OR OBSTRUCTIONS TO VISIBILITY.


NDZ001>003-009>011-017-110800-
NORTHWEST NORTH DAKOTA

CITY           SKY/WX    TMP DP  RH WIND       PRES   REMARKS
WILLISTON      CLEAR     65  60  84 N9        29.89R
MINOT          PTCLDY    69  66  90 SE8       29.82F
MINOT AFB      PTCLDY    67  67 100 SE7       29.81F
$$

NDZ018>021-031>035-040>046-110800-
SOUTHWEST NORTH DAKOTA

CITY           SKY/WX    TMP DP  RH WIND       PRES   REMARKS
BISMARCK       CLEAR     64  63  96 CALM      29.83R
DICKINSON      CLEAR     65  63  93 NW7       29.87S
GARRISON         N/A     66  64  93 N13       29.84R
HETTINGER ARPT CLEAR     63  60  90 W5        29.90R
$$

NDZ004>008-012>016-024-026-027-054-110800-
NORTHEAST NORTH DAKOTA

CITY           SKY/WX    TMP DP  RH WIND       PRES   REMARKS
GRAND FORKS    MOCLDY    65  63  93 CALM      29.80F
GRND FRKS AFB  FOG       63  63 100 CALM      29.81F VSB 1/2
DEVILS LAKE    MOCLDY    66  61  82 CALM      29.79F
$$

NDZ022-023-025-028>030-036>039-047>053-110800-
SOUTHEAST NORTH DAKOTA

CITY           SKY/WX    TMP DP  RH WIND       PRES   REMARKS
FARGO          PTCLDY    71  68  90 SE12      29.80F
JAMESTOWN      CLEAR     65  64  97 S5        29.82S FOG
$$




USA.gov is the U.S. government's official web portal to all federal, state and local government web resources and services.